Year,Month,Day,Hour,Minute,Value (Times are PST for insolation in W/m^2)
2019,10,07,00,00,0.00
2019,10,07,00,01,0.00
2019,10,07,00,02,0.00
2019,10,07,00,03,0.00
2019,10,07,00,04,0.00
2019,10,07,00,05,0.00
2019,10,07,00,06,0.00
2019,10,07,00,07,0.00
2019,10,07,00,08,0.00
2019,10,07,00,09,0.00
2019,10,07,00,10,0.00
2019,10,07,00,11,0.00
2019,10,07,00,12,0.00
2019,10,07,00,13,0.00
2019,10,07,00,14,0.00
2019,10,07,00,15,0.00
2019,10,07,00,16,0.00
2019,10,07,00,17,0.00
2019,10,07,00,18,0.00
2019,10,07,00,19,0.00
2019,10,07,00,20,0.00
2019,10,07,00,21,0.00
2019,10,07,00,22,0.00
2019,10,07,00,23,0.00
2019,10,07,00,24,0.00
2019,10,07,00,25,0.00
2019,10,07,00,26,0.00
2019,10,07,00,27,0.00
2019,10,07,00,28,0.00
2019,10,07,00,29,0.00
2019,10,07,00,30,0.00
2019,10,07,00,31,0.00
2019,10,07,00,32,0.00
2019,10,07,00,33,0.00
2019,10,07,00,34,0.00
2019,10,07,00,35,0.00
2019,10,07,00,36,0.00
2019,10,07,00,37,0.00
2019,10,07,00,38,0.00
2019,10,07,00,39,0.00
2019,10,07,00,40,0.00
2019,10,07,00,41,0.00
2019,10,07,00,42,0.00
2019,10,07,00,43,0.00
2019,10,07,00,44,0.00
2019,10,07,00,45,0.00
2019,10,07,00,46,0.00
2019,10,07,00,47,0.00
2019,10,07,00,48,0.00
2019,10,07,00,49,0.00
2019,10,07,00,50,0.00
2019,10,07,00,51,0.00
2019,10,07,00,52,0.00
2019,10,07,00,53,0.00
2019,10,07,00,54,0.00
2019,10,07,00,55,0.00
2019,10,07,00,56,0.00
2019,10,07,00,57,0.00
2019,10,07,00,58,0.00
2019,10,07,00,59,0.00
2019,10,07,01,00,0.00
2019,10,07,01,01,0.00
2019,10,07,01,02,0.00
2019,10,07,01,03,0.00
2019,10,07,01,04,0.00
2019,10,07,01,05,0.00
2019,10,07,01,06,0.00
2019,10,07,01,07,0.00
2019,10,07,01,08,0.00
2019,10,07,01,09,0.00
2019,10,07,01,10,0.00
2019,10,07,01,11,0.00
2019,10,07,01,12,0.00
2019,10,07,01,13,0.00
2019,10,07,01,14,0.00
2019,10,07,01,15,0.00
2019,10,07,01,16,0.00
2019,10,07,01,17,0.00
2019,10,07,01,18,0.00
2019,10,07,01,19,0.00
2019,10,07,01,20,0.00
2019,10,07,01,21,0.00
2019,10,07,01,22,0.00
2019,10,07,01,23,0.00
2019,10,07,01,24,0.00
2019,10,07,01,25,0.00
2019,10,07,01,26,0.00
2019,10,07,01,27,0.00
2019,10,07,01,28,0.00
2019,10,07,01,29,0.00
2019,10,07,01,30,0.00
2019,10,07,01,31,0.00
2019,10,07,01,32,0.00
2019,10,07,01,33,0.00
2019,10,07,01,34,0.00
2019,10,07,01,35,0.00
2019,10,07,01,36,0.00
2019,10,07,01,37,0.00
2019,10,07,01,38,0.00
2019,10,07,01,39,0.00
2019,10,07,01,40,0.00
2019,10,07,01,41,0.00
2019,10,07,01,42,0.00
2019,10,07,01,43,0.00
2019,10,07,01,44,0.00
2019,10,07,01,45,0.00
2019,10,07,01,46,0.00
2019,10,07,01,47,0.00
2019,10,07,01,48,0.00
2019,10,07,01,49,0.00
2019,10,07,01,50,0.00
2019,10,07,01,51,0.00
2019,10,07,01,52,0.00
2019,10,07,01,53,0.00
2019,10,07,01,54,0.00
2019,10,07,01,55,0.00
2019,10,07,01,56,0.00
2019,10,07,01,57,0.00
2019,10,07,01,58,0.00
2019,10,07,01,59,0.00
2019,10,07,02,00,0.00
2019,10,07,02,01,0.00
2019,10,07,02,02,0.00
2019,10,07,02,03,0.00
2019,10,07,02,04,0.00
2019,10,07,02,05,0.00
2019,10,07,02,06,0.00
2019,10,07,02,07,0.00
2019,10,07,02,08,0.00
2019,10,07,02,09,0.00
2019,10,07,02,10,0.00
2019,10,07,02,11,0.00
2019,10,07,02,12,0.00
2019,10,07,02,13,0.00
2019,10,07,02,14,0.00
2019,10,07,02,15,0.00
2019,10,07,02,16,0.00
2019,10,07,02,17,0.00
2019,10,07,02,18,0.00
2019,10,07,02,19,0.00
2019,10,07,02,20,0.00
2019,10,07,02,21,0.00
2019,10,07,02,22,0.00
2019,10,07,02,23,0.00
2019,10,07,02,24,0.00
2019,10,07,02,25,0.00
2019,10,07,02,26,0.00
2019,10,07,02,27,0.00
2019,10,07,02,28,0.00
2019,10,07,02,29,0.00
2019,10,07,02,30,0.00
2019,10,07,02,31,0.00
2019,10,07,02,32,0.00
2019,10,07,02,33,0.00
2019,10,07,02,34,0.00
2019,10,07,02,35,0.00
2019,10,07,02,36,0.00
2019,10,07,02,37,0.00
2019,10,07,02,38,0.00
2019,10,07,02,39,0.00
2019,10,07,02,40,0.00
2019,10,07,02,41,0.00
2019,10,07,02,42,0.00
2019,10,07,02,43,0.00
2019,10,07,02,44,0.00
2019,10,07,02,45,0.00
2019,10,07,02,46,0.00
2019,10,07,02,47,0.00
2019,10,07,02,48,0.00
2019,10,07,02,49,0.00
2019,10,07,02,50,0.00
2019,10,07,02,51,0.00
2019,10,07,02,52,0.00
2019,10,07,02,53,0.00
2019,10,07,02,54,0.00
2019,10,07,02,55,0.00
2019,10,07,02,56,0.00
2019,10,07,02,57,0.00
2019,10,07,02,58,0.00
2019,10,07,02,59,0.00
2019,10,07,03,00,0.00
2019,10,07,03,01,0.00
2019,10,07,03,02,0.00
2019,10,07,03,03,0.00
2019,10,07,03,04,0.00
2019,10,07,03,05,0.00
2019,10,07,03,06,0.00
2019,10,07,03,07,0.00
2019,10,07,03,08,0.00
2019,10,07,03,09,0.00
2019,10,07,03,10,0.00
2019,10,07,03,11,0.00
2019,10,07,03,12,0.00
2019,10,07,03,13,0.00
2019,10,07,03,14,0.00
2019,10,07,03,15,0.00
2019,10,07,03,16,0.00
2019,10,07,03,17,0.00
2019,10,07,03,18,0.00
2019,10,07,03,19,0.00
2019,10,07,03,20,0.00
2019,10,07,03,21,0.00
2019,10,07,03,22,0.00
2019,10,07,03,23,0.00
2019,10,07,03,24,0.00
2019,10,07,03,25,0.00
2019,10,07,03,26,0.00
2019,10,07,03,27,0.00
2019,10,07,03,28,0.00
2019,10,07,03,29,0.00
2019,10,07,03,30,0.00
2019,10,07,03,31,0.00
2019,10,07,03,32,0.00
2019,10,07,03,33,0.00
2019,10,07,03,34,0.00
2019,10,07,03,35,0.00
2019,10,07,03,36,0.00
2019,10,07,03,37,0.00
2019,10,07,03,38,0.00
2019,10,07,03,39,0.00
2019,10,07,03,40,0.00
2019,10,07,03,41,0.00
2019,10,07,03,42,0.00
2019,10,07,03,43,0.00
2019,10,07,03,44,0.00
2019,10,07,03,45,0.00
2019,10,07,03,46,0.00
2019,10,07,03,47,0.00
2019,10,07,03,48,0.00
2019,10,07,03,49,0.00
2019,10,07,03,50,0.00
2019,10,07,03,51,0.00
2019,10,07,03,52,0.00
2019,10,07,03,53,0.00
2019,10,07,03,54,0.00
2019,10,07,03,55,0.00
2019,10,07,03,56,0.00
2019,10,07,03,57,0.00
2019,10,07,03,58,0.00
2019,10,07,03,59,0.00
2019,10,07,04,00,0.00
2019,10,07,04,01,0.00
2019,10,07,04,02,0.00
2019,10,07,04,03,0.00
2019,10,07,05,04,0.00
2019,10,07,05,05,0.00
2019,10,07,05,06,0.00
2019,10,07,05,07,0.00
2019,10,07,05,08,0.00
2019,10,07,05,09,0.00
2019,10,07,05,10,0.00
2019,10,07,05,11,0.00
2019,10,07,05,12,0.00
2019,10,07,05,13,0.00
2019,10,07,05,14,0.00
2019,10,07,05,15,0.00
2019,10,07,05,16,0.00
2019,10,07,05,17,0.00
2019,10,07,05,18,0.00
2019,10,07,05,19,0.00
2019,10,07,05,20,0.00
2019,10,07,05,21,0.00
2019,10,07,05,22,0.00
2019,10,07,05,23,0.00
2019,10,07,05,24,0.00
2019,10,07,05,25,0.00
2019,10,07,05,26,0.00
2019,10,07,05,27,0.00
2019,10,07,05,28,0.00
2019,10,07,05,29,0.00
2019,10,07,05,30,0.00
2019,10,07,05,31,0.00
2019,10,07,05,32,0.00
2019,10,07,05,33,0.00
2019,10,07,05,34,0.00
2019,10,07,05,35,0.00
2019,10,07,05,36,0.00
2019,10,07,05,37,0.00
2019,10,07,05,38,0.00
2019,10,07,05,39,0.00
2019,10,07,05,40,0.00
2019,10,07,05,41,0.00
2019,10,07,05,42,0.00
2019,10,07,05,43,0.00
2019,10,07,05,44,0.00
2019,10,07,05,45,0.00
2019,10,07,05,46,0.00
2019,10,07,05,47,0.00
2019,10,07,05,48,0.00
2019,10,07,05,49,0.00
2019,10,07,05,50,0.00
2019,10,07,05,51,0.00
2019,10,07,05,52,0.00
2019,10,07,05,53,0.00
2019,10,07,05,54,0.00
2019,10,07,05,55,0.00
2019,10,07,05,56,0.00
2019,10,07,05,57,0.00
2019,10,07,05,58,0.00
2019,10,07,05,59,0.00
2019,10,07,06,00,0.00
2019,10,07,06,01,0.00
2019,10,07,06,02,0.00
2019,10,07,06,03,0.00
2019,10,07,06,04,0.00
2019,10,07,06,05,0.00
2019,10,07,06,06,0.00
2019,10,07,06,07,0.00
2019,10,07,06,08,0.00
2019,10,07,06,09,0.00
2019,10,07,06,10,0.00
2019,10,07,06,11,0.00
2019,10,07,06,12,0.00
2019,10,07,06,13,0.00
2019,10,07,06,14,0.00
2019,10,07,06,15,0.00
2019,10,07,06,16,0.00
2019,10,07,06,17,0.00
2019,10,07,06,18,0.00
2019,10,07,06,19,0.00
2019,10,07,06,20,0.00
2019,10,07,06,21,0.00
2019,10,07,06,22,0.00
2019,10,07,06,23,0.00
2019,10,07,06,24,0.00
2019,10,07,06,25,0.00
2019,10,07,06,26,0.00
2019,10,07,06,27,0.00
2019,10,07,06,28,0.00
2019,10,07,06,29,0.00
2019,10,07,06,30,0.00
2019,10,07,06,31,0.00
2019,10,07,06,32,0.00
2019,10,07,06,33,0.00
2019,10,07,06,34,0.00
2019,10,07,06,35,0.00
2019,10,07,06,36,0.00
2019,10,07,06,37,0.00
2019,10,07,06,38,0.00
2019,10,07,06,39,0.00
2019,10,07,06,40,0.00
2019,10,07,06,41,0.00
2019,10,07,06,42,0.00
2019,10,07,06,43,0.00
2019,10,07,06,44,0.00
2019,10,07,06,45,0.00
2019,10,07,06,46,0.00
2019,10,07,06,47,0.00
2019,10,07,06,48,0.00
2019,10,07,06,49,0.00
2019,10,07,06,50,0.00
2019,10,07,06,51,0.00
2019,10,07,06,52,0.00
2019,10,07,06,53,0.00
2019,10,07,06,54,0.00
2019,10,07,06,55,0.00
2019,10,07,06,56,0.00
2019,10,07,06,57,0.00
2019,10,07,06,58,0.00
2019,10,07,06,59,0.00
2019,10,07,07,00,0.00
2019,10,07,07,01,0.00
2019,10,07,07,02,0.00
2019,10,07,07,03,0.00
2019,10,07,07,04,0.00
2019,10,07,07,05,0.00
2019,10,07,07,06,0.00
2019,10,07,07,07,0.00
2019,10,07,07,08,0.00
2019,10,07,07,09,0.00
2019,10,07,07,10,0.00
2019,10,07,07,11,0.00
2019,10,07,07,12,0.00
2019,10,07,07,13,0.00
2019,10,07,07,14,0.00
2019,10,07,07,15,0.00
2019,10,07,07,16,0.00
2019,10,07,07,17,0.00
2019,10,07,07,18,0.00
2019,10,07,07,19,0.00
2019,10,07,07,20,0.00
2019,10,07,07,21,0.00
2019,10,07,07,22,0.00
2019,10,07,07,23,0.00
2019,10,07,07,24,0.00
2019,10,07,07,25,0.00
2019,10,07,07,26,0.00
2019,10,07,07,27,0.00
2019,10,07,07,28,0.00
2019,10,07,07,29,0.00
2019,10,07,07,30,0.00
2019,10,07,07,31,0.00
2019,10,07,07,32,1.20
2019,10,07,07,33,5.00
2019,10,07,07,34,5.00
2019,10,07,07,35,5.00
2019,10,07,07,36,6.70
2019,10,07,07,37,9.20
2019,10,07,07,38,11.00
2019,10,07,07,39,11.00
2019,10,07,07,40,11.00
2019,10,07,07,41,11.00
2019,10,07,07,42,11.00
2019,10,07,07,43,11.00
2019,10,07,07,44,11.00
2019,10,07,07,45,10.10
2019,10,07,07,46,7.80
2019,10,07,07,47,5.50
2019,10,07,07,48,0.50
2019,10,07,07,49,0.00
2019,10,07,07,50,0.00
2019,10,07,07,51,0.00
2019,10,07,07,52,0.00
2019,10,07,07,53,0.00
2019,10,07,07,54,0.00
2019,10,07,07,55,0.00
2019,10,07,07,56,0.00
2019,10,07,07,57,0.00
2019,10,07,07,58,0.00
2019,10,07,07,59,0.00
2019,10,07,08,00,0.00
2019,10,07,08,01,0.00
2019,10,07,08,02,0.00
2019,10,07,08,03,0.00
2019,10,07,08,04,0.00
2019,10,07,08,05,0.00
2019,10,07,08,06,0.00
2019,10,07,08,07,1.10
2019,10,07,08,08,5.00
2019,10,07,08,09,5.00
2019,10,07,08,10,5.00
2019,10,07,08,11,5.00
2019,10,07,08,12,6.90
2019,10,07,08,13,7.50
2019,10,07,08,14,9.80
2019,10,07,08,15,11.60
2019,10,07,08,16,13.30
2019,10,07,08,17,14.00
2019,10,07,08,18,16.30
2019,10,07,08,19,19.00
2019,10,07,08,20,18.60
2019,10,07,08,21,18.00
2019,10,07,08,22,18.00
2019,10,07,08,23,18.00
2019,10,07,08,24,18.00
2019,10,07,08,25,17.40
2019,10,07,08,26,16.00
2019,10,07,08,27,16.00
2019,10,07,08,28,16.00
2019,10,07,08,29,16.00
2019,10,07,08,30,16.00
2019,10,07,08,31,16.00
2019,10,07,08,32,16.00
2019,10,07,08,33,17.20
2019,10,07,08,34,18.80
2019,10,07,08,35,21.20
2019,10,07,08,36,26.90
2019,10,07,08,37,33.50
2019,10,07,08,38,38.50
2019,10,07,08,39,41.30
2019,10,07,08,40,40.40
2019,10,07,08,41,39.10
2019,10,07,08,42,40.40
2019,10,07,08,43,43.40
2019,10,07,08,44,46.00
2019,10,07,08,45,49.40
2019,10,07,08,46,47.80
2019,10,07,08,47,43.50
2019,10,07,08,48,34.70
2019,10,07,08,49,26.00
2019,10,07,08,50,26.00
2019,10,07,08,51,21.50
2019,10,07,08,52,19.00
2019,10,07,08,53,21.50
2019,10,07,08,54,25.80
2019,10,07,08,55,28.80
2019,10,07,08,56,32.80
2019,10,07,08,57,39.90
2019,10,07,08,58,47.90
2019,10,07,08,59,56.30
2019,10,07,09,00,63.00
2019,10,07,09,01,63.00
2019,10,07,09,02,63.00
2019,10,07,09,03,67.90
2019,10,07,09,04,84.30
2019,10,07,09,05,93.60
2019,10,07,09,06,93.70
2019,10,07,09,07,77.40
2019,10,07,09,08,57.40
2019,10,07,09,09,42.90
2019,10,07,09,10,37.00
2019,10,07,09,11,29.40
2019,10,07,09,12,25.70
2019,10,07,09,13,25.00
2019,10,07,09,14,25.00
2019,10,07,09,15,25.00
2019,10,07,09,16,24.90
2019,10,07,09,17,22.60
2019,10,07,09,18,21.00
2019,10,07,09,19,22.00
2019,10,07,09,20,23.00
2019,10,07,09,21,23.00
2019,10,07,09,22,21.00
2019,10,07,09,23,19.00
2019,10,07,09,24,18.60
2019,10,07,09,25,18.50
2019,10,07,09,26,19.00
2019,10,07,09,27,20.60
2019,10,07,09,28,21.00
2019,10,07,09,29,21.50
2019,10,07,09,30,25.00
2019,10,07,09,31,30.60
2019,10,07,09,32,38.80
2019,10,07,09,33,50.80
2019,10,07,09,34,57.30
2019,10,07,09,35,52.20
2019,10,07,09,36,44.20
2019,10,07,09,37,37.20
2019,10,07,09,38,32.90
2019,10,07,09,39,32.80
2019,10,07,09,40,35.50
2019,10,07,09,41,40.60
2019,10,07,09,42,41.20
2019,10,07,09,43,39.50
2019,10,07,09,44,39.70
2019,10,07,09,45,45.10
2019,10,07,09,46,51.50
2019,10,07,09,47,54.00
2019,10,07,09,48,51.80
2019,10,07,09,49,47.80
2019,10,07,09,50,46.30
2019,10,07,09,51,44.30
2019,10,07,09,52,46.60
2019,10,07,09,53,50.60
2019,10,07,09,54,57.60
2019,10,07,09,55,65.00
2019,10,07,09,56,70.80
2019,10,07,09,57,78.30
2019,10,07,09,58,94.20
2019,10,07,09,59,111.90
2019,10,07,10,00,125.50
2019,10,07,10,01,134.40
2019,10,07,10,02,131.80
2019,10,07,10,03,127.60
2019,10,07,10,04,134.90
2019,10,07,10,05,142.10
2019,10,07,10,06,124.50
2019,10,07,10,07,108.20
2019,10,07,10,08,105.00
2019,10,07,10,09,118.10
2019,10,07,10,10,125.50
2019,10,07,10,11,127.00
2019,10,07,10,12,121.50
2019,10,07,10,13,99.80
2019,10,07,10,14,74.20
2019,10,07,10,15,62.00
2019,10,07,10,16,57.00
2019,10,07,10,17,52.70
2019,10,07,10,18,48.80
2019,10,07,10,19,47.00
2019,10,07,10,20,52.10
2019,10,07,10,21,63.00
2019,10,07,10,22,82.40
2019,10,07,10,23,98.20
2019,10,07,10,24,97.90
2019,10,07,10,25,101.30
2019,10,07,10,26,114.20
2019,10,07,10,27,114.00
2019,10,07,10,28,114.60
2019,10,07,10,29,113.90
2019,10,07,10,30,107.40
2019,10,07,10,31,102.90
2019,10,07,10,32,96.10
2019,10,07,10,33,90.00
2019,10,07,10,34,86.80
2019,10,07,10,35,80.10
2019,10,07,10,36,84.40
2019,10,07,10,37,94.80
2019,10,07,10,38,96.70
2019,10,07,10,39,89.70
2019,10,07,10,40,91.50
2019,10,07,10,41,110.50
2019,10,07,10,42,145.80
2019,10,07,10,43,180.40
2019,10,07,10,44,185.80
2019,10,07,10,45,180.20
2019,10,07,10,46,176.40
2019,10,07,10,47,160.80
2019,10,07,10,48,130.80
2019,10,07,10,49,104.20
2019,10,07,10,50,83.70
2019,10,07,10,51,82.20
2019,10,07,10,52,87.50
2019,10,07,10,53,94.40
2019,10,07,10,54,100.80
2019,10,07,10,55,103.70
2019,10,07,10,56,94.20
2019,10,07,10,57,82.00
2019,10,07,10,58,79.80
2019,10,07,10,59,83.80
2019,10,07,11,00,89.50
2019,10,07,11,01,104.50
2019,10,07,11,02,116.30
2019,10,07,11,03,176.80
2019,10,07,11,04,200.40
2019,10,07,11,05,207.00
2019,10,07,11,06,211.90
2019,10,07,11,07,207.20
2019,10,07,11,08,179.60
2019,10,07,11,09,173.20
2019,10,07,11,10,169.70
2019,10,07,11,11,181.10
2019,10,07,11,12,204.80
2019,10,07,11,13,194.20
2019,10,07,11,14,166.20
2019,10,07,11,15,152.20
2019,10,07,11,16,143.80
2019,10,07,11,17,150.00
2019,10,07,11,18,175.90
2019,10,07,11,19,188.90
2019,10,07,11,20,181.20
2019,10,07,11,21,174.60
2019,10,07,11,22,203.00
2019,10,07,11,23,254.10
2019,10,07,11,24,248.60
2019,10,07,11,25,234.60
2019,10,07,11,26,177.80
2019,10,07,11,27,149.70
2019,10,07,11,28,155.50
2019,10,07,11,29,190.60
2019,10,07,11,30,206.20
2019,10,07,11,31,174.70
2019,10,07,11,32,166.00
2019,10,07,11,33,175.30
2019,10,07,11,34,183.20
2019,10,07,11,35,172.60
2019,10,07,11,36,146.30
2019,10,07,11,37,156.30
2019,10,07,11,38,151.20
2019,10,07,11,39,146.00
2019,10,07,11,40,131.90
2019,10,07,11,41,128.00
2019,10,07,11,42,129.20
2019,10,07,11,43,144.10
2019,10,07,11,44,166.20
2019,10,07,11,45,180.00
2019,10,07,11,46,183.20
2019,10,07,11,47,194.30
2019,10,07,11,48,200.00
2019,10,07,11,49,204.80
2019,10,07,11,50,213.20
2019,10,07,11,51,232.20
2019,10,07,11,52,252.60
2019,10,07,11,53,243.50
2019,10,07,11,54,222.90
2019,10,07,11,55,195.20
2019,10,07,11,56,170.10
2019,10,07,11,57,163.00
2019,10,07,11,58,155.80
2019,10,07,11,59,125.20
2019,10,07,12,00,107.40
2019,10,07,12,01,95.60
2019,10,07,12,02,83.60
2019,10,07,12,03,77.60
2019,10,07,12,04,74.80
2019,10,07,12,05,88.20
2019,10,07,12,06,104.30
2019,10,07,12,07,122.50
2019,10,07,12,08,128.00
2019,10,07,12,09,134.20
2019,10,07,12,10,145.60
2019,10,07,12,11,154.40
2019,10,07,12,12,141.00
2019,10,07,12,13,122.20
2019,10,07,12,14,111.40
2019,10,07,12,15,106.00
2019,10,07,12,16,104.30
2019,10,07,12,17,99.20
2019,10,07,12,18,96.80
2019,10,07,12,19,81.80
2019,10,07,12,20,72.40
2019,10,07,12,21,78.00
2019,10,07,12,22,76.90
2019,10,07,12,23,91.20
2019,10,07,12,24,130.10
2019,10,07,12,25,145.90
2019,10,07,12,26,132.20
2019,10,07,12,27,112.80
2019,10,07,12,28,111.20
2019,10,07,12,29,105.40
2019,10,07,12,30,92.70
2019,10,07,12,31,107.20
2019,10,07,12,32,130.90
2019,10,07,12,33,144.90
2019,10,07,12,34,154.60
2019,10,07,12,35,170.70
2019,10,07,12,36,176.70
2019,10,07,12,37,170.40
2019,10,07,12,38,163.10
2019,10,07,12,39,158.40
2019,10,07,12,40,135.20
2019,10,07,12,41,108.10
2019,10,07,12,42,84.40
2019,10,07,12,43,67.60
2019,10,07,12,44,60.50
2019,10,07,12,45,61.20
2019,10,07,12,46,70.10
2019,10,07,12,47,92.80
2019,10,07,12,48,102.50
2019,10,07,12,49,111.90
2019,10,07,12,50,97.50
2019,10,07,12,51,84.60
2019,10,07,12,52,73.80
2019,10,07,12,53,77.70
2019,10,07,12,54,68.60
2019,10,07,12,55,87.30
2019,10,07,12,56,136.60
2019,10,07,12,57,165.60
2019,10,07,12,58,166.40
2019,10,07,12,59,165.10
2019,10,07,13,00,221.20
2019,10,07,13,01,237.40
2019,10,07,13,02,184.90
2019,10,07,13,03,161.90
2019,10,07,13,04,167.40
2019,10,07,13,05,186.10
2019,10,07,13,06,258.50
2019,10,07,13,07,320.40
2019,10,07,13,08,298.00
2019,10,07,13,09,221.30
2019,10,07,13,10,177.10
2019,10,07,13,11,202.50
2019,10,07,13,12,263.20
2019,10,07,13,13,289.20
2019,10,07,13,14,298.00
2019,10,07,13,15,240.50
2019,10,07,13,16,199.40
2019,10,07,13,17,264.10
2019,10,07,13,18,326.20
2019,10,07,13,19,348.20
2019,10,07,13,20,328.60
2019,10,07,13,21,246.20
2019,10,07,13,22,226.20
2019,10,07,13,23,283.10
2019,10,07,13,24,282.10
2019,10,07,13,25,361.50
2019,10,07,13,26,371.90
2019,10,07,13,27,300.50
2019,10,07,13,28,298.30
2019,10,07,13,29,294.60
2019,10,07,13,30,307.60
2019,10,07,13,31,271.50
2019,10,07,13,32,273.50
2019,10,07,13,33,276.80
2019,10,07,13,34,279.00
2019,10,07,13,35,290.20
2019,10,07,13,36,318.40
2019,10,07,13,37,340.40
2019,10,07,13,38,349.30
2019,10,07,13,39,354.00
2019,10,07,13,40,311.20
2019,10,07,13,41,301.90
2019,10,07,13,42,273.60
2019,10,07,13,43,267.60
2019,10,07,13,44,277.00
2019,10,07,13,45,278.40
2019,10,07,13,46,268.00
2019,10,07,13,47,263.30
2019,10,07,13,48,269.80
2019,10,07,13,49,279.00
2019,10,07,13,50,290.70
2019,10,07,13,51,302.40
2019,10,07,13,52,309.30
2019,10,07,13,53,319.20
2019,10,07,13,54,323.40
2019,10,07,13,55,327.90
2019,10,07,13,56,332.80
2019,10,07,13,57,337.40
2019,10,07,13,58,322.20
2019,10,07,13,59,325.10
2019,10,07,14,00,347.50
2019,10,07,14,01,350.40
2019,10,07,14,02,343.20
2019,10,07,14,03,345.00
2019,10,07,14,04,337.50
2019,10,07,14,05,325.10
2019,10,07,14,06,326.00
2019,10,07,14,07,332.20
2019,10,07,14,08,336.00
2019,10,07,14,09,383.30
2019,10,07,14,10,403.20
2019,10,07,14,11,372.60
2019,10,07,14,12,356.50
2019,10,07,14,13,348.80
2019,10,07,14,14,410.80
2019,10,07,14,15,355.70
2019,10,07,14,16,355.70
2019,10,07,14,17,380.80
2019,10,07,14,18,362.00
2019,10,07,14,19,414.00
2019,10,07,14,20,385.70
2019,10,07,14,21,347.10
2019,10,07,14,22,407.20
2019,10,07,14,23,424.00
2019,10,07,14,24,415.20
2019,10,07,14,25,409.40
2019,10,07,14,26,378.80
2019,10,07,14,27,348.00
2019,10,07,14,28,317.10
2019,10,07,14,29,317.90
2019,10,07,14,30,305.50
2019,10,07,14,31,279.40
2019,10,07,14,32,259.70
2019,10,07,14,33,243.60
2019,10,07,14,34,237.00
2019,10,07,14,35,237.00
2019,10,07,14,36,237.00
2019,10,07,14,37,241.20
2019,10,07,14,38,255.80
2019,10,07,14,39,283.00
2019,10,07,14,40,293.10
2019,10,07,14,41,299.70
2019,10,07,14,42,269.50
2019,10,07,14,43,283.80
2019,10,07,14,44,269.70
2019,10,07,14,45,269.20
2019,10,07,14,46,258.00
2019,10,07,14,47,255.80
2019,10,07,14,48,247.00
2019,10,07,14,49,245.40
2019,10,07,14,50,250.60
2019,10,07,14,51,274.20
2019,10,07,14,52,294.60
2019,10,07,14,53,294.50
2019,10,07,14,54,300.60
2019,10,07,14,55,311.10
2019,10,07,14,56,311.40
2019,10,07,14,57,318.00
2019,10,07,14,58,325.20
2019,10,07,14,59,340.10
2019,10,07,15,00,360.00
2019,10,07,15,01,510.00
2019,10,07,15,02,494.20
2019,10,07,15,03,454.00
2019,10,07,15,04,407.60
2019,10,07,15,05,338.00
2019,10,07,15,06,388.00
2019,10,07,15,07,374.20
2019,10,07,15,08,423.90
2019,10,07,15,09,404.80
2019,10,07,15,10,325.80
2019,10,07,15,11,300.80
2019,10,07,15,12,286.30
2019,10,07,15,13,279.80
2019,10,07,15,14,281.80
2019,10,07,15,15,272.40
2019,10,07,15,16,260.20
2019,10,07,15,17,257.80
2019,10,07,15,18,251.60
2019,10,07,15,19,244.60
2019,10,07,15,20,241.40
2019,10,07,15,21,231.10
2019,10,07,15,22,231.10
2019,10,07,15,23,238.90
2019,10,07,15,24,241.60
2019,10,07,15,25,242.70
2019,10,07,15,26,241.60
2019,10,07,15,27,246.20
2019,10,07,15,28,251.00
2019,10,07,15,29,267.20
2019,10,07,15,30,267.70
2019,10,07,15,31,268.80
2019,10,07,15,32,272.00
2019,10,07,15,33,251.10
2019,10,07,15,34,233.60
2019,10,07,15,35,241.00
2019,10,07,15,36,253.00
2019,10,07,15,37,245.50
2019,10,07,15,38,265.00
2019,10,07,15,39,265.00
2019,10,07,15,40,285.50
2019,10,07,15,41,337.10
2019,10,07,15,42,284.60
2019,10,07,15,43,233.00
2019,10,07,15,44,216.00
2019,10,07,15,45,216.00
2019,10,07,15,46,222.10
2019,10,07,15,47,248.20
2019,10,07,15,48,259.60
2019,10,07,15,49,244.80
2019,10,07,15,50,245.00
2019,10,07,15,51,248.00
2019,10,07,15,52,238.50
2019,10,07,15,53,216.40
2019,10,07,15,54,207.30
2019,10,07,15,55,213.90
2019,10,07,15,56,215.30
2019,10,07,15,57,200.80
2019,10,07,15,58,202.90
2019,10,07,15,59,218.80
2019,10,07,16,00,223.00
2019,10,07,16,01,200.90
2019,10,07,16,02,196.30
2019,10,07,16,03,193.70
2019,10,07,16,04,191.40
2019,10,07,16,05,185.20
2019,10,07,16,06,178.40
2019,10,07,16,07,183.80
2019,10,07,16,08,189.20
2019,10,07,16,09,187.90
2019,10,07,16,10,180.50
2019,10,07,16,11,175.10
2019,10,07,16,12,169.20
2019,10,07,16,13,169.50
2019,10,07,16,14,173.00
2019,10,07,16,15,184.90
2019,10,07,16,16,192.40
2019,10,07,16,17,188.80
2019,10,07,16,18,190.40
2019,10,07,16,19,199.00
2019,10,07,16,20,211.80
2019,10,07,16,21,220.00
2019,10,07,16,22,231.90
2019,10,07,16,23,238.20
2019,10,07,16,24,240.70
2019,10,07,16,25,239.50
2019,10,07,16,26,241.00
2019,10,07,16,27,249.80
2019,10,07,16,28,264.00
2019,10,07,16,29,270.40
2019,10,07,16,30,273.70
2019,10,07,16,31,271.10
2019,10,07,16,32,257.80
2019,10,07,16,33,239.90
2019,10,07,16,34,249.60
2019,10,07,16,35,249.40
2019,10,07,16,36,226.60
2019,10,07,16,37,221.90
2019,10,07,16,38,210.60
2019,10,07,16,39,197.40
2019,10,07,16,40,193.00
2019,10,07,16,41,173.90
2019,10,07,16,42,170.00
2019,10,07,16,43,168.30
2019,10,07,16,44,153.50
2019,10,07,16,45,147.80
2019,10,07,16,46,142.80
2019,10,07,16,47,137.20
2019,10,07,16,48,130.80
2019,10,07,16,49,125.50
2019,10,07,16,50,121.50
2019,10,07,16,51,118.70
2019,10,07,16,52,118.00
2019,10,07,16,53,116.10
2019,10,07,16,54,116.50
2019,10,07,16,55,118.80
2019,10,07,16,56,118.90
2019,10,07,16,57,118.00
2019,10,07,16,58,116.40
2019,10,07,16,59,115.80
2019,10,07,17,00,114.00
2019,10,07,17,01,114.80
2019,10,07,17,02,116.00
2019,10,07,17,03,120.90
2019,10,07,17,04,130.60
2019,10,07,17,05,134.40
2019,10,07,17,06,129.10
2019,10,07,17,07,132.40
2019,10,07,17,08,159.30
2019,10,07,17,09,169.10
2019,10,07,17,10,192.50
2019,10,07,17,11,195.20
2019,10,07,17,12,177.70
2019,10,07,17,13,160.20
2019,10,07,17,14,160.40
2019,10,07,17,15,162.00
2019,10,07,17,16,164.60
2019,10,07,17,17,188.00
2019,10,07,17,18,204.90
2019,10,07,17,19,214.90
2019,10,07,17,20,222.60
2019,10,07,17,21,227.00
2019,10,07,17,22,206.90
2019,10,07,17,23,178.30
2019,10,07,17,24,170.10
2019,10,07,17,25,164.20
2019,10,07,17,26,154.20
2019,10,07,17,27,160.80
2019,10,07,17,28,175.40
2019,10,07,17,29,182.80
2019,10,07,17,30,206.90
2019,10,07,17,31,220.50
2019,10,07,17,32,222.40
2019,10,07,17,33,221.00
2019,10,07,17,34,170.30
2019,10,07,17,35,185.50
2019,10,07,17,36,211.20
2019,10,07,17,37,205.40
2019,10,07,17,38,206.10
2019,10,07,17,39,183.40
2019,10,07,17,40,205.60
2019,10,07,17,41,193.50
2019,10,07,17,42,151.00
2019,10,07,17,43,144.70
2019,10,07,17,44,142.00
2019,10,07,17,45,139.40
2019,10,07,17,46,141.10
2019,10,07,17,47,157.20
2019,10,07,17,48,165.30
2019,10,07,17,49,143.80
2019,10,07,17,50,128.00
2019,10,07,17,51,127.20
2019,10,07,17,52,121.90
2019,10,07,17,53,124.90
2019,10,07,17,54,114.20
2019,10,07,17,55,105.80
2019,10,07,17,56,110.90
2019,10,07,17,57,99.40
2019,10,07,17,58,94.20
2019,10,07,17,59,89.20
2019,10,07,18,00,84.60
2019,10,07,18,01,80.60
2019,10,07,18,02,76.80
2019,10,07,18,03,70.60
2019,10,07,18,04,67.80
2019,10,07,18,05,61.20
2019,10,07,18,06,54.70
2019,10,07,18,07,48.00
2019,10,07,18,08,43.00
2019,10,07,18,09,39.10
2019,10,07,18,10,35.00
2019,10,07,18,11,34.30
2019,10,07,18,12,32.50
2019,10,07,18,13,30.60
2019,10,07,18,14,28.40
2019,10,07,18,15,28.20
2019,10,07,18,16,29.60
2019,10,07,18,17,27.20
2019,10,07,18,18,25.50
2019,10,07,18,19,25.00